Lapse_Rate
6.2 6.1 6.2 6.2 6.2 5.8 6.1 6.3 6.9 7.3 7.6 7.9 7.8 7.8 7.4 7.3 7.2 6.9 7.0 7.0 7.0 6.7 6.5 6.2 6.2 6.1 6.0 5.9 5.8 5.7 5.6 5.6 5.5 5.4 5.5 5.4 5.4 5.5 5.4 5.3 5.4 5.3 5.3 5.4 5.4 5.4 5.5 5.5 5.6
6.4 6.2 6.2 6.1 5.9 5.7 6.3 6.8 6.8 7.0 7.4 7.7 7.6 7.7 7.6 7.3 7.1 7.2 7.2 7.1 6.9 6.9 6.6 6.4 6.3 6.1 6.0 5.9 5.9 5.9 5.8 5.6 5.6 5.5 5.5 5.5 5.5 5.5 5.5 5.4 5.3 5.3 5.3 5.4 5.4 5.4 5.4 5.5 5.6
6.1 6.6 6.3 5.8 5.7 5.9 6.7 6.9 6.8 7.1 7.0 7.3 7.5 7.7 7.8 7.1 7.2 7.2 7.2 7.1 6.9 7.0 6.7 6.5 6.3 6.1 6.0 6.0 5.9 5.7 5.7 5.7 5.5 5.6 5.4 5.3 5.4 5.4 5.5 5.5 5.4 5.4 5.3 5.3 5.4 5.4 5.5 5.5 5.6
6.0 6.4 6.4 5.8 5.6 6.6 6.9 6.9 7.0 7.0 7.0 7.0 7.3 7.6 7.8 7.5 7.1 7.2 7.0 7.0 7.0 6.9 6.8 6.6 6.3 6.1 6.0 6.0 6.0 5.8 5.7 5.7 5.8 5.6 5.5 5.4 5.3 5.3 5.3 5.3 5.3 5.3 5.2 5.3 5.3 5.4 5.5 5.5 5.6
5.8 6.2 6.2 5.9 6.1 6.7 6.9 6.6 6.8 6.8 6.7 6.9 7.1 7.2 7.3 7.6 7.2 7.2 7.0 7.0 7.0 6.8 6.8 6.6 6.4 6.2 6.1 6.0 6.0 6.0 5.9 5.8 5.7 5.6 5.6 5.5 5.4 5.3 5.2 5.2 5.1 5.1 5.1 5.1 5.2 5.3 5.3 5.3 5.5
5.8 6.0 5.8 5.9 6.6 7.1 6.9 6.5 6.7 6.9 6.7 6.7 6.9 7.1 7.2 7.2 7.4 7.1 7.1 6.9 6.9 6.8 6.8 6.7 6.4 6.3 6.1 6.0 6.0 6.0 5.9 5.9 5.9 5.9 5.7 5.6 5.4 5.3 5.3 5.2 5.1 5.0 5.0 5.1 5.1 5.1 5.0 5.1 5.3
5.8 5.8 5.6 5.9 6.9 7.6 6.8 6.6 6.6 6.8 6.6 6.6 6.7 6.5 6.9 7.0 7.3 7.1 7.1 7.0 6.7 6.8 6.7 6.6 6.5 6.3 6.1 6.1 6.1 6.0 6.0 5.9 5.8 5.8 5.7 5.7 5.5 5.4 5.3 5.3 5.2 5.2 5.1 5.1 5.1 5.1 5.1 5.1 5.2
5.8 6.0 6.3 5.9 6.5 7.6 7.3 6.8 6.3 6.6 6.2 6.4 6.6 6.2 6.6 6.8 6.9 7.0 7.0 7.0 6.9 6.8 6.8 6.6 6.5 6.4 6.2 6.2 6.2 6.0 6.0 5.9 5.8 5.7 5.6 5.5 5.5 5.5 5.3 5.3 5.3 5.3 5.3 5.3 5.2 5.1 5.1 5.2 5.2
6.0 5.8 5.7 6.0 6.4 6.7 7.2 7.1 6.3 6.5 6.3 6.3 6.5 6.5 6.4 6.6 6.6 6.8 7.0 6.8 6.9 6.9 6.8 6.7 6.5 6.3 6.3 6.3 6.2 6.1 6.1 6.0 5.8 5.7 5.6 5.6 5.5 5.5 5.5 5.5 5.5 5.5 5.4 5.4 5.4 5.4 5.3 5.3 5.4
6.1 5.4 5.3 6.1 6.8 7.3 6.7 6.8 6.6 6.5 6.5 6.4 6.4 6.6 6.5 6.6 6.5 6.5 6.8 6.9 6.8 6.7 6.6 6.6 6.5 6.5 6.4 6.3 6.3 6.2 6.2 6.1 5.9 5.8 5.8 5.7 5.6 5.6 5.5 5.6 5.6 5.5 5.4 5.4 5.4 5.4 5.4 5.5 5.6
6.1 6.3 5.6 6.0 6.4 6.5 6.5 6.6 6.2 6.4 6.5 6.2 6.1 6.1 6.6 6.5 6.6 6.5 6.6 6.8 6.6 6.6 6.6 6.5 6.5 6.5 6.4 6.4 6.3 6.2 6.2 6.1 6.1 5.9 5.8 5.9 5.8 5.7 5.7 5.7 5.6 5.5 5.6 5.6 5.5 5.5 5.5 5.5 5.6
6.4 6.1 6.3 6.3 6.0 6.1 6.1 6.0 5.8 5.6 6.1 6.3 6.2 5.7 5.8 6.3 6.6 6.7 6.7 6.7 6.8 6.7 6.7 6.6 6.6 6.5 6.4 6.3 6.2 6.1 6.1 6.1 6.1 6.0 6.0 5.9 5.9 5.8 5.8 5.7 5.7 5.6 5.5 5.6 5.6 5.6 5.6 5.7 5.7
6.6 6.6 6.4 6.0 6.1 6.5 6.0 5.6 5.5 6.1 6.1 6.1 6.0 6.3 5.8 6.2 6.4 6.4 6.3 6.4 6.5 6.6 6.5 6.4 6.4 6.4 6.3 6.2 6.1 6.1 6.1 5.9 5.9 5.9 5.9 5.8 5.9 5.9 5.8 5.7 5.7 5.6 5.6 5.6 5.7 5.7 5.8 5.7 5.8
6.3 6.4 6.8 6.5 6.2 6.0 5.7 5.4 5.3 6.5 6.0 6.1 6.1 6.1 6.3 6.2 6.6 6.3 6.7 6.7 6.6 6.6 6.5 6.4 6.3 6.2 6.1 6.0 6.0 6.0 5.9 5.9 5.9 5.8 5.7 5.8 5.8 5.7 5.7 5.7 5.7 5.7 5.6 5.5 5.5 5.6 5.7 5.8 5.9
6.4 6.4 6.6 6.3 6.2 5.8 5.7 5.3 5.2 6.3 6.0 6.1 6.2 6.2 6.3 6.6 6.3 6.5 6.4 6.4 6.5 6.5 6.3 6.4 6.3 6.2 6.2 6.0 5.9 5.9 5.8 5.8 5.9 5.7 5.6 5.5 5.6 5.7 5.7 5.7 5.7 5.5 5.6 5.6 5.6 5.7 5.8 5.9 5.8
6.7 6.5 6.5 6.4 6.3 5.9 5.5 5.4 6.3 5.4 5.6 6.0 6.2 6.4 6.4 6.6 6.8 6.5 6.4 6.5 6.4 6.2 6.3 6.3 6.3 6.3 6.3 6.2 6.2 6.1 6.0 6.0 5.9 5.7 5.6 5.5 5.4 5.5 5.7 5.8 5.8 5.6 5.7 5.7 5.8 5.8 5.8 5.9 5.8
6.3 6.5 6.4 6.5 6.6 6.8 6.0 5.9 6.0 5.7 5.8 6.0 6.1 6.5 6.8 6.7 6.8 7.0 6.6 6.4 6.5 6.6 6.5 6.5 6.4 6.3 6.2 6.1 6.2 6.1 6.1 6.0 5.9 5.8 5.7 5.6 5.6 5.5 5.6 5.8 5.8 5.7 5.8 5.8 5.9 5.9 5.9 6.0 6.1
5.7 6.0 6.7 6.6 6.5 5.9 6.2 5.8 6.1 6.0 5.6 5.9 6.5 6.7 6.7 6.8 7.1 6.7 6.5 6.4 6.5 6.7 6.7 6.5 6.3 6.3 6.2 6.2 6.3 6.2 6.1 6.1 6.1 6.1 6.0 5.7 5.6 5.5 5.6 5.7 5.8 5.8 5.7 5.9 5.8 5.7 5.8 6.0 6.1
6.5 6.7 6.6 6.3 6.6 6.5 6.0 6.3 6.4 6.1 6.2 6.4 6.6 6.7 6.7 6.9 6.9 6.8 6.7 6.5 6.5 6.6 6.7 6.7 6.4 6.3 6.1 6.1 6.1 6.1 6.2 6.1 6.1 6.0 5.9 5.9 5.8 5.8 5.9 5.8 5.8 5.8 5.6 5.7 5.8 5.8 5.8 5.8 5.8
6.5 6.7 6.7 6.7 6.7 6.7 6.6 6.5 7.0 6.7 6.6 6.6 6.7 6.8 6.8 6.7 6.7 6.9 6.9 6.6 6.4 6.5 6.8 6.7 6.6 6.5 6.3 6.2 6.3 6.2 6.1 6.2 6.2 6.0 5.9 5.8 5.8 5.8 5.8 5.7 5.7 5.6 5.6 5.6 5.9 5.8 5.7 5.6 5.6
6.7 6.8 6.9 7.1 6.9 6.9 6.7 7.1 7.2 6.9 7.1 6.9 6.7 6.9 6.9 6.8 6.6 6.7 6.7 6.6 6.5 6.5 6.7 6.6 6.5 6.5 6.5 6.5 6.4 6.4 6.5 6.4 6.4 6.2 5.9 5.8 5.7 5.8 5.7 5.5 5.5 5.4 5.4 5.6 5.8 6.0 5.9 5.7 5.5
6.6 6.7 6.8 7.0 7.1 6.7 6.7 6.5 7.5 7.3 7.2 7.0 6.8 6.7 7.0 7.1 6.9 6.7 6.8 6.7 6.3 6.2 6.2 6.3 6.4 6.3 6.3 6.2 6.1 6.2 6.3 6.5 6.5 6.5 6.4 6.4 6.2 6.0 5.7 5.5 5.4 5.2 5.2 5.4 5.7 5.8 5.8 5.8 5.9
6.7 6.7 6.6 6.7 6.8 6.8 6.6 6.6 6.9 7.2 7.4 7.6 7.0 6.9 7.0 6.9 6.7 6.9 6.9 6.7 6.6 6.4 6.2 6.2 6.2 6.2 6.2 6.1 6.1 6.1 6.2 6.1 6.1 6.1 6.1 6.1 6.1 6.0 5.9 5.8 5.8 5.9 5.7 5.5 5.4 5.4 5.5 5.7 5.9
6.8 6.7 6.6 6.7 6.6 5.6 6.4 6.6 6.6 7.2 7.8 7.5 7.2 7.3 7.4 7.1 6.8 6.7 6.7 6.8 6.9 6.8 6.6 6.3 6.3 6.3 6.3 6.3 6.2 6.2 6.1 6.0 5.9 5.8 5.7 5.7 5.8 5.8 5.7 5.9 5.9 5.9 5.8 5.7 5.5 5.4 5.3 5.3 5.5
6.4 6.4 5.6 5.6 5.6 4.6 6.4 6.5 6.2 7.2 7.4 7.4 7.5 7.5 7.5 7.3 7.1 6.6 6.7 6.9 6.8 6.8 6.7 6.6 6.6 6.5 6.5 6.3 6.1 6.0 5.9 5.8 5.7 5.6 5.6 5.6 5.6 5.7 5.7 5.8 6.0 6.2 6.1 5.8 5.6 5.5 5.5 5.4 5.4
6.2 6.5 6.2 5.5 4.8 5.1 6.4 5.9 5.9 7.3 7.8 7.7 7.5 7.7 7.8 7.3 6.9 6.8 6.7 6.6 6.8 6.8 6.8 6.8 6.7 6.4 6.2 6.1 6.0 5.8 5.8 5.7 5.8 5.8 5.9 5.8 5.8 5.8 5.9 6.1 6.1 6.1 6.1 6.0 5.9 5.7 5.7 5.7 5.7
6.2 6.2 6.4 6.3 5.8 5.1 6.2 6.3 6.8 7.2 7.4 7.6 8.0 7.8 7.9 8.0 7.6 6.9 6.7 6.6 6.6 6.8 6.6 6.4 6.3 6.2 6.1 6.1 6.1 6.0 6.1 6.2 6.2 6.1 6.0 6.0 6.2 6.1 6.2 6.1 6.1 6.1 6.0 6.0 5.9 5.9 5.9 5.9 5.7
6.4 6.4 6.0 6.4 4.6 5.1 5.6 6.2 6.9 7.5 7.7 7.6 7.8 8.0 7.8 7.8 7.7 7.4 7.0 6.7 6.4 6.5 6.5 6.3 6.1 6.2 6.2 6.2 6.2 6.3 6.2 6.3 6.2 6.2 6.1 6.2 6.3 6.4 6.4 6.3 6.2 6.1 6.0 6.0 6.1 6.1 5.9 5.8 5.7
6.1 5.9 6.2 6.4 6.3 4.9 4.9 6.5 7.4 7.7 7.6 7.8 7.7 7.9 7.8 8.1 8.1 7.6 7.1 6.6 6.3 6.4 6.5 6.4 6.3 6.4 6.3 6.2 6.3 6.3 6.3 6.3 6.2 6.2 6.2 6.2 6.4 6.4 6.3 6.2 6.1 6.0 5.9 6.0 6.0 5.9 5.7 5.6 5.7
6.2 6.2 6.3 6.3 5.8 6.1 5.4 5.9 7.5 7.9 7.7 7.8 7.6 7.5 7.7 7.5 7.2 7.4 7.1 6.8 6.8 6.7 6.6 6.4 6.5 6.6 6.6 6.5 6.5 6.4 6.2 6.2 6.2 6.1 6.1 6.1 6.1 6.1 6.1 6.0 5.9 6.0 6.1 6.0 6.0 5.8 5.7 5.7 5.8
Wind_Speed
7 6 2 4 3 4 3 6 3 5 2 2 3 4 5 5 3 4 3 6 13 13 16 19 20 18 16 16 16 16 16 15 16 13 11 10 9 10 10 12 15 13 12 11 10 10 10 11 12
3 1 4 3 4 3 4 4 5 5 2 6 6 3 5 3 3 4 5 7 17 15 15 17 19 17 18 17 16 15 17 17 15 13 12 9 9 9 12 13 15 12 12 12 11 10 10 11 12
3 2 3 4 3 5 4 3 6 6 4 4 4 4 2 2 2 7 3 12 14 12 15 17 19 18 18 17 16 16 19 15 13 13 11 9 6 16 14 16 15 12 12 12 11 10 10 10 10
3 3 4 4 4 5 4 5 4 8 4 4 4 7 2 3 5 6 11 13 11 10 15 18 19 18 17 16 17 18 18 15 14 12 10 10 13 16 16 16 14 11 11 11 9 8 8 8 8
3 2 3 2 4 4 4 5 7 7 7 2 1 4 2 4 4 13 11 10 12 8 15 17 18 18 16 15 17 19 18 16 16 12 10 10 12 13 13 14 11 10 10 10 9 7 6 6 6
3 3 2 3 3 4 5 6 6 5 4 3 5 4 1 2 6 8 10 9 11 11 12 16 18 17 16 15 17 18 18 17 16 14 11 9 8 11 10 10 10 9 8 8 7 5 4 3 3
5 2 5 3 2 4 3 8 3 7 6 3 7 4 1 3 2 7 7 7 7 10 10 13 16 18 18 17 19 19 19 18 18 16 14 10 9 6 8 8 8 7 7 7 5 4 2 1 1
4 5 17 6 4 5 3 8 5 7 5 7 2 6 4 3 7 7 7 7 7 5 6 9 12 12 14 16 20 20 19 18 17 17 15 13 12 9 8 7 7 7 7 6 4 3 2 1 0
1 6 15 18 13 14 1 6 7 11 5 4 7 2 4 8 12 8 7 5 5 4 5 7 8 11 13 13 15 16 18 17 16 15 16 14 11 11 12 11 8 8 9 6 4 3 2 2 1
5 9 16 6 16 18 4 5 8 8 14 6 3 7 7 9 13 11 8 8 6 6 5 5 7 8 10 9 10 12 14 14 14 14 14 14 13 10 9 9 9 10 10 10 7 5 4 2 2
5 13 3 8 11 1 5 1 7 7 7 5 10 5 5 9 8 11 7 10 12 6 4 6 5 10 10 7 10 9 10 12 13 15 15 12 11 10 9 9 9 9 8 7 7 6 5 5 4
6 12 13 6 5 3 6 4 7 3 9 10 11 8 4 7 11 11 9 7 7 6 7 6 6 5 7 8 9 10 8 10 10 15 16 13 9 9 9 10 11 10 13 10 10 8 7 7 8
3 10 8 12 12 7 1 7 14 16 18 15 13 5 8 6 5 4 6 6 6 7 7 7 6 6 7 6 7 8 8 10 11 14 16 15 9 7 10 10 10 11 11 10 9 9 8 8 10
6 4 10 13 10 8 5 3 3 21 7 12 10 7 7 7 7 5 7 7 7 7 7 7 8 8 10 6 7 7 10 13 12 12 14 17 14 10 9 7 9 11 13 13 12 10 8 8 8
4 6 5 7 11 7 11 11 13 26 16 16 11 8 8 9 6 8 8 9 9 6 9 9 9 11 8 9 9 9 11 11 10 12 15 16 16 14 11 8 6 11 14 12 10 9 8 5 6
4 4 5 8 12 4 13 10 19 7 16 14 10 8 8 7 8 7 7 7 8 6 9 10 8 8 8 9 9 9 11 11 11 13 15 17 14 17 13 7 7 13 13 11 6 4 4 4 4
2 6 6 7 18 8 16 5 18 20 20 14 14 9 8 7 6 7 7 7 7 8 7 7 7 8 9 6 7 9 11 10 12 13 13 16 17 16 13 10 11 14 10 7 6 5 4 4 4
18 6 13 8 11 9 18 3 12 19 19 18 19 8 8 8 9 5 7 6 4 4 5 6 4 5 6 4 3 2 3 5 10 9 11 15 15 17 14 10 8 10 5 5 4 7 4 4 5
8 5 7 1 4 11 10 7 6 8 6 8 10 9 9 9 3 2 3 6 7 5 6 3 5 2 2 2 2 2 5 3 3 8 13 12 12 12 13 10 8 9 7 8 8 5 7 5 2
9 5 4 2 3 11 7 8 8 9 7 9 10 9 10 5 5 4 5 4 3 5 5 5 5 4 2 2 1 1 1 2 2 2 7 11 11 11 9 6 5 6 6 6 6 7 3 3 5
3 7 4 5 3 3 4 3 8 11 6 7 7 8 6 10 9 7 6 5 5 5 4 5 5 4 3 2 1 1 2 2 2 1 2 3 8 11 11 10 5 5 5 5 6 5 8 9 3
4 4 5 5 4 4 3 4 8 9 12 9 14 10 10 8 6 5 7 6 6 5 5 5 5 5 4 4 3 2 0 1 2 2 3 4 6 7 8 9 9 6 4 6 7 6 8 4 7
2 5 6 3 4 3 2 1 6 3 7 17 14 12 9 9 10 10 8 7 5 5 5 5 7 6 5 6 5 3 2 1 2 3 5 5 5 6 7 8 7 6 4 6 7 5 6 5 7
7 6 7 5 3 2 5 5 6 6 7 4 7 11 9 9 9 7 7 7 6 5 5 5 7 6 6 6 6 5 4 1 2 2 2 3 3 3 6 8 6 5 5 6 6 6 6 7 7
4 5 2 1 1 5 2 4 15 7 4 6 8 9 9 9 10 9 9 7 6 6 5 5 6 5 5 6 5 4 3 1 1 2 2 2 2 2 5 5 5 4 4 4 4 5 5 5 5
5 6 5 6 4 3 2 8 6 6 9 7 8 7 6 8 7 8 8 7 7 6 6 6 6 5 5 5 5 4 4 2 1 1 1 1 2 2 4 4 5 5 6 4 1 1 3 4 5
4 3 3 6 2 3 5 7 9 7 10 6 6 7 10 8 8 8 7 7 7 6 5 5 5 5 6 6 5 5 5 3 2 3 2 2 3 4 5 5 5 5 5 5 4 2 3 1 2
3 3 2 3 3 4 4 5 7 6 9 5 7 10 8 7 8 7 7 7 5 5 5 6 5 5 4 5 4 3 5 5 4 5 5 5 5 5 6 6 6 6 6 6 6 4 5 5 4
1 2 3 2 4 4 2 5 6 6 8 8 8 8 10 10 9 8 7 6 6 5 5 5 4 4 4 4 3 5 5 5 5 5 5 4 5 5 5 5 5 6 6 7 6 6 6 6 5
4 4 6 4 4 3 2 6 2 6 7 7 7 7 7 9 8 7 7 7 6 5 4 4 3 3 3 2 3 4 5 5 5 5 5 4 5 5 5 5 6 6 7 6 6 6 5 6 6
Wind_Direction
311 320 81 44 74 66 246 259 267 296 221 230 107 140 164 96 134 202 301 151 135 147 152 154 153 151 150 140 141 145 144 138 124 124 122 118 118 117 124 123 114 110 104 101 101 100 100 102 103
334 109 45 84 107 123 259 258 253 246 276 110 88 68 36 97 110 111 112 167 146 145 150 150 150 151 140 141 146 150 143 132 131 127 120 122 127 137 141 134 118 114 108 108 107 104 103 106 109
359 66 96 115 134 182 218 209 290 291 275 226 100 54 126 69 45 149 150 145 140 141 146 150 147 143 146 149 151 151 135 137 133 116 121 128 131 142 138 133 121 118 117 118 117 113 108 111 112
37 22 39 108 201 248 226 308 317 324 302 225 128 75 8 349 159 159 139 139 131 129 139 148 150 149 152 155 159 146 141 140 122 117 129 137 120 122 129 127 121 128 127 130 128 121 116 116 116
44 51 84 99 244 262 295 310 318 299 304 328 148 154 42 26 131 130 132 137 135 132 139 146 145 153 156 158 149 147 144 137 120 126 136 141 127 127 124 120 140 141 142 144 140 135 128 123 118
57 89 96 185 244 296 307 338 323 314 276 247 83 94 110 29 114 135 138 145 147 142 145 146 154 160 160 161 156 153 146 138 133 138 141 150 140 145 144 142 150 153 153 151 148 148 143 127 101
153 160 183 158 275 326 320 346 14 312 301 269 144 90 302 94 161 130 126 120 131 139 141 151 161 170 171 169 169 161 149 145 146 149 150 151 157 166 162 160 163 162 159 157 161 168 173 158 104
175 188 238 190 231 272 315 342 357 13 303 326 96 160 185 163 126 100 102 108 117 124 136 147 165 179 169 169 176 164 154 154 155 155 157 158 158 174 181 174 179 174 167 162 170 187 220 249 294
104 186 218 212 210 233 87 20 338 315 324 332 330 112 124 123 117 104 103 84 105 130 151 154 159 165 163 167 182 167 159 161 163 163 164 164 173 177 172 179 180 180 175 172 185 208 245 277 310
142 213 214 187 208 234 174 86 348 3 332 353 332 55 89 122 134 139 153 156 158 169 181 175 163 162 154 138 153 155 158 165 168 170 173 173 178 182 183 186 191 194 195 182 191 203 207 225 295
191 204 193 200 202 243 270 293 10 1 322 59 344 256 135 136 137 147 164 173 179 181 175 182 177 170 162 149 164 166 167 173 176 179 185 185 183 186 189 198 206 210 212 201 209 208 214 223 232
173 217 196 150 126 176 235 299 296 282 259 312 305 278 245 163 161 162 167 179 173 170 194 183 180 180 185 173 180 184 175 179 179 191 192 186 187 195 198 203 214 216 212 208 210 217 230 242 247
234 177 165 124 143 155 319 264 272 281 291 303 303 238 245 178 172 143 154 166 179 184 196 201 179 189 189 189 193 193 193 188 194 196 201 196 190 198 201 212 216 222 219 219 219 225 230 242 249
185 156 163 149 181 153 152 231 225 266 287 317 331 250 237 202 184 147 182 190 181 183 193 197 198 198 183 190 191 203 195 202 197 203 207 204 202 204 201 211 216 223 222 225 220 216 221 236 244
185 105 111 190 169 177 175 231 220 256 285 298 294 278 233 234 214 204 185 196 188 195 184 192 196 197 189 196 198 200 205 197 197 208 214 209 207 208 205 212 212 223 223 228 228 231 231 237 237
97 94 150 200 168 143 150 222 221 261 269 278 282 268 265 210 206 230 219 208 198 186 194 195 191 179 183 199 201 201 206 203 207 208 212 219 216 210 208 211 219 218 214 211 215 222 229 230 227
163 174 186 154 199 154 181 177 193 196 239 255 261 255 263 268 250 230 227 225 227 214 208 191 186 182 190 189 192 198 207 208 215 214 214 220 219 217 211 217 221 207 209 209 213 224 209 222 231
186 190 191 170 188 179 196 216 167 194 197 221 252 242 249 260 257 290 234 200 201 241 235 247 193 189 183 176 181 186 203 225 231 227 219 217 218 218 210 224 223 200 210 220 200 221 203 213 225
120 112 166 140 201 192 204 214 230 184 186 223 247 252 235 239 274 61 101 119 110 76 90 95 126 60 145 151 175 200 222 200 206 220 233 233 222 220 207 219 214 195 207 220 216 214 225 244 182
134 118 152 76 158 181 185 211 245 257 221 211 230 238 235 220 185 147 124 124 101 120 116 97 89 71 78 118 185 227 217 227 248 224 224 233 233 232 230 232 234 208 216 218 211 201 219 232 173
91 151 165 162 99 60 116 246 227 239 236 244 238 243 214 204 200 170 155 149 131 121 111 93 76 62 51 54 76 37 10 358 324 298 286 258 242 238 229 235 229 232 211 225 221 206 209 243 183
97 159 149 115 113 204 163 269 240 231 238 232 239 218 228 198 183 173 169 160 153 138 117 103 91 79 46 44 63 61 102 262 303 322 315 312 312 286 262 238 228 224 212 218 226 220 223 201 232
122 137 143 124 95 121 222 151 254 232 231 236 235 243 219 195 179 182 181 162 149 135 123 111 102 83 77 72 80 81 64 343 322 323 315 318 318 314 316 289 252 233 213 228 224 211 207 203 235
133 83 54 55 83 312 183 173 254 211 215 218 234 233 206 183 180 170 164 143 129 113 101 95 91 70 64 73 72 85 87 353 345 326 328 329 332 356 9 345 317 268 244 224 229 222 214 215 223
90 98 60 52 214 227 282 175 243 251 266 218 236 244 199 179 164 161 157 149 131 116 108 106 100 78 59 60 56 55 59 40 311 307 302 341 338 346 343 342 348 338 306 260 230 217 212 215 217
146 164 151 180 190 238 73 237 240 247 260 247 228 211 166 161 156 157 155 143 134 125 111 107 101 87 56 44 25 12 6 359 20 67 72 16 349 317 335 340 349 353 354 348 321 229 237 220 215
189 147 160 104 45 69 217 290 296 268 268 258 210 165 163 168 161 157 144 139 133 124 115 116 102 79 52 37 21 13 359 8 70 55 56 54 17 357 0 358 359 4 9 5 358 42 52 330 265
86 169 90 3 143 242 258 260 243 282 269 269 202 173 166 159 151 144 147 138 127 121 114 93 84 75 51 40 23 23 16 45 47 48 47 58 36 20 13 11 15 18 18 15 28 37 19 45 34
161 158 88 136 155 194 281 255 216 249 264 228 199 176 167 165 161 155 146 134 129 117 110 104 86 73 47 40 28 37 28 42 51 54 42 44 55 31 29 24 30 29 27 19 42 50 43 59 47
170 199 187 193 219 232 172 262 245 270 270 185 189 169 158 162 159 149 144 140 144 139 124 111 94 76 34 41 67 55 49 45 49 46 39 38 58 41 38 37 43 37 33 28 35 48 48 60 55